Dewpoint
51 50 46 46 45 45 46 44 44 47 48 48 50 51 51 51 52 54 54 56 56 55 55 55 55 56 55
49 47 45 44 42 42 44 43 42 43 45 46 48 49 50 50 50 51 52 53 54 54 53 54 54 53 52
44 44 44 42 41 40 40 40 40 42 42 44 45 47 48 49 49 50 50 52 52 53 54 54 54 51 50
43 42 42 42 41 39 38 38 37 38 39 41 42 43 45 47 48 49 49 51 52 51 51 52 53 51 48
42 41 40 39 38 39 36 36 35 35 35 36 36 38 41 43 46 47 48 49 50 49 49 50 50 49 47
39 39 38 38 39 37 35 34 33 34 33 34 33 34 37 40 45 46 46 47 47 46 46 46 48 47 45
40 39 37 38 37 35 34 34 33 34 33 32 31 32 35 37 41 43 44 44 45 44 43 42 43 43 43
41 39 38 39 37 36 34 33 33 33 32 33 31 32 32 33 36 40 42 43 44 43 43 42 41 41 40
41 41 41 40 38 35 32 30 30 31 31 32 31 30 30 31 33 36 39 41 42 43 42 42 41 41 39
39 40 39 39 39 34 33 30 29 29 31 30 29 27 28 30 30 31 33 37 40 41 42 43 41 38 38
35 34 33 32 32 31 32 30 28 28 31 28 23 24 23 26 28 29 29 30 32 33 35 39 40 39 37
32 32 31 30 29 29 29 30 29 27 31 27 24 24 27 29 28 27 26 27 28 29 30 34 36 40 39
32 32 31 30 29 28 28 27 26 28 30 28 29 28 29 27 26 27 25 25 25 23 24 26 30 32 34
33 32 30 29 28 28 27 27 24 24 28 29 28 28 26 27 27 26 23 20 22 22 23 25 29 30 32
32 30 29 29 28 26 26 26 23 23 25 28 29 28 28 24 23 23 22 17 22 20 26 25 26 28 29
32 31 29 28 27 26 25 24 24 23 25 24 26 27 23 25 28 24 17 17 19 21 26 26 25 26 27
33 32 31 30 29 27 25 23 24 22 24 24 25 21 19 16 22 29 18 19 24 26 27 27 26 26 27
Lifted_Index
4 4 3 4 5 6 8 9 10 11 11 12 12 12 12 11 11 10 9 8 6 6 5 5 4 5 5
4 4 4 4 5 7 9 10 10 11 11 12 12 12 12 12 11 10 9 8 7 6 6 5 5 6 6
3 3 4 5 7 9 10 11 11 11 12 12 12 12 12 12 12 11 10 9 8 7 6 6 6 6 7
3 3 4 5 7 9 10 11 11 11 12 12 12 12 12 12 12 11 10 9 8 7 7 6 6 7 7
2 3 4 5 7 9 10 10 11 11 11 11 12 12 12 12 12 11 10 9 8 8 7 7 7 7 7
2 3 4 6 8 9 9 10 10 11 11 11 12 12 12 12 11 10 10 9 9 8 8 8 8 8 8
3 4 6 8 9 9 9 9 10 11 11 10 11 11 11 11 11 10 10 10 9 9 9 9 8 8 8
6 7 8 9 9 10 10 10 10 10 10 10 10 11 11 11 11 11 10 10 10 10 9 9 9 9 8
8 9 10 10 10 10 10 9 9 9 9 9 9 9 10 11 11 11 11 10 10 10 10 9 9 9 8
9 9 10 10 10 10 10 9 8 8 9 9 9 9 10 11 11 11 11 10 10 10 10 10 9 9 8
9 9 9 9 10 10 11 10 9 9 10 11 10 10 10 10 12 12 12 11 10 10 10 10 10 10 9
8 8 8 9 9 10 11 11 11 12 13 14 12 11 11 11 12 14 15 13 12 12 11 11 11 11 11
7 7 8 8 9 10 11 11 12 14 15 16 15 14 13 12 13 15 15 15 15 15 14 14 14 14 13
6 7 7 8 8 9 10 11 11 12 14 16 16 16 14 14 14 14 15 15 16 16 16 16 16 16 15
6 6 6 7 8 9 9 9 9 10 11 13 15 15 15 15 14 14 14 15 16 16 16 16 17 17 17
5 5 5 6 7 8 8 9 9 9 10 11 12 12 12 13 14 15 14 15 15 16 16 15 16 17 17
5 5 5 6 6 7 8 8 8 9 10 11 10 10 9 11 14 15 15 15 15 15 15 15 15 17 17